Time,TemperatureF,DewpointF,PressureIn,WindDirection,WindDirectionDegrees,WindSpeedMPH,WindSpeedGustMPH,Humidity,HourlyPrecipIn,Conditions,Clouds,dailyrainin,SoftwareType,DateUTC
2013-01-18 00:03:00,62.3,18.3,30.17,North,9,4.0,6.0,18,0.00,,---,0.00,VWS V14.01,2013-01-18 08:03:00,
2013-01-18 00:08:00,62.3,18.3,30.17,North,5,0.0,6.0,18,0.00,,---,0.00,VWS V14.01,2013-01-18 08:08:00,
2013-01-18 00:13:00,62.3,18.3,30.17,North,360,4.0,6.0,18,0.00,,---,0.00,VWS V14.01,2013-01-18 08:13:00,
2013-01-18 00:18:00,62.2,18.2,30.17,NNW,346,3.0,6.0,18,0.00,,---,0.00,VWS V14.01,2013-01-18 08:18:00,
2013-01-18 00:23:00,61.9,18.0,30.17,NE,40,2.0,6.0,18,0.00,,---,0.00,VWS V14.01,2013-01-18 08:23:00,
2013-01-18 00:28:00,61.7,17.8,30.16,North,360,0.0,6.0,18,0.00,,---,0.00,VWS V14.01,2013-01-18 08:28:00,
2013-01-18 00:33:00,61.8,17.9,30.17,NW,324,4.0,6.0,18,0.00,,---,0.00,VWS V14.01,2013-01-18 08:33:00,
2013-01-18 00:38:00,62.0,19.3,30.17,NW,325,2.0,8.0,19,0.00,,---,0.00,VWS V14.01,2013-01-18 08:38:00,
2013-01-18 00:43:00,61.6,19.0,30.17,North,351,0.0,8.0,19,0.00,,---,0.00,VWS V14.01,2013-01-18 08:43:00,
2013-01-18 00:48:00,61.3,18.7,30.17,NW,323,0.0,8.0,19,0.00,,---,0.00,VWS V14.01,2013-01-18 08:48:00,
2013-01-18 00:53:00,60.8,21.7,30.17,NW,323,0.0,8.0,22,0.00,,---,0.00,VWS V14.01,2013-01-18 08:53:00,
2013-01-18 00:58:00,59.8,20.9,30.17,NW,323,0.0,8.0,22,0.00,,---,0.00,VWS V14.01,2013-01-18 08:58:00,
2013-01-18 01:03:00,59.0,20.2,30.17,NE,36,0.0,2.0,22,0.00,,---,0.00,VWS V14.01,2013-01-18 09:03:00,
2013-01-18 01:08:00,58.8,20.1,30.17,NE,35,0.0,2.0,22,0.00,,---,0.00,VWS V14.01,2013-01-18 09:08:00,
2013-01-18 01:13:00,58.6,19.9,30.17,NNW,342,0.0,2.0,22,0.00,,---,0.00,VWS V14.01,2013-01-18 09:13:00,
2013-01-18 01:18:00,59.7,19.7,30.17,North,355,3.0,6.0,21,0.00,,---,0.00,VWS V14.01,2013-01-18 09:18:00,
2013-01-18 01:23:00,61.1,18.5,30.17,North,5,5.0,8.0,19,0.00,,---,0.00,VWS V14.01,2013-01-18 09:23:00,
2013-01-18 01:28:00,62.0,18.0,30.17,NNW,338,3.0,8.0,18,0.00,,---,0.00,VWS V14.01,2013-01-18 09:28:00,
2013-01-18 01:33:00,62.2,18.2,30.17,NE,51,3.0,7.0,18,0.00,,---,0.00,VWS V14.01,2013-01-18 09:33:00,
2013-01-18 01:38:00,62.3,18.3,30.17,NW,325,2.0,7.0,18,0.00,,---,0.00,VWS V14.01,2013-01-18 09:38:00,
2013-01-18 01:43:00,62.2,18.2,30.17,NNW,345,0.0,7.0,18,0.00,,---,0.00,VWS V14.01,2013-01-18 09:43:00,
2013-01-18 01:48:00,61.8,20.3,30.17,NNW,345,0.0,7.0,20,0.00,,---,0.00,VWS V14.01,2013-01-18 09:48:00,
2013-01-18 01:53:00,61.0,19.7,30.17,NNE,13,0.0,7.0,20,0.00,,---,0.00,VWS V14.01,2013-01-18 09:53:00,
2013-01-18 01:58:00,60.5,18.1,30.17,NNW,344,2.0,7.0,19,0.00,,---,0.00,VWS V14.01,2013-01-18 09:58:00,
2013-01-18 02:03:00,60.5,18.1,30.17,NNE,13,0.0,4.0,19,0.00,,---,0.00,VWS V14.01,2013-01-18 10:03:00,
2013-01-18 02:08:00,60.2,19.0,30.16,NNE,13,0.0,4.0,20,0.00,,---,0.00,VWS V14.01,2013-01-18 10:08:00,
2013-01-18 02:13:00,60.1,17.7,30.16,North,5,0.0,4.0,19,0.00,,---,0.00,VWS V14.01,2013-01-18 10:13:00,
2013-01-18 02:18:00,60.2,19.0,30.16,North,360,0.0,4.0,20,0.00,,---,0.00,VWS V14.01,2013-01-18 10:18:00,
2013-01-18 02:23:00,60.3,17.9,30.16,North,355,2.0,4.0,19,0.00,,---,0.00,VWS V14.01,2013-01-18 10:23:00,
2013-01-18 02:28:00,60.4,18.0,30.16,North,360,1.0,4.0,19,0.00,,---,0.00,VWS V14.01,2013-01-18 10:28:00,
2013-01-18 02:33:00,60.5,18.1,30.16,NNW,346,7.0,7.0,19,0.00,,---,0.00,VWS V14.01,2013-01-18 10:33:00,
2013-01-18 02:38:00,61.1,18.5,30.16,NNE,18,3.0,7.0,19,0.00,,---,0.00,VWS V14.01,2013-01-18 10:38:00,
2013-01-18 02:43:00,61.2,18.6,30.16,North,9,2.0,7.0,19,0.00,,---,0.00,VWS V14.01,2013-01-18 10:43:00,
2013-01-18 02:48:00,61.5,18.9,30.15,NNW,340,4.0,8.0,19,0.00,,---,0.00,VWS V14.01,2013-01-18 10:48:00,
2013-01-18 02:53:00,61.4,18.8,30.15,NNW,344,3.0,8.0,19,0.00,,---,0.00,VWS V14.01,2013-01-18 10:53:00,
2013-01-18 02:58:00,61.3,18.7,30.15,NNW,338,4.0,8.0,19,0.00,,---,0.00,VWS V14.01,2013-01-18 10:58:00,
2013-01-18 03:03:00,61.0,18.5,30.15,NNW,337,1.0,6.0,19,0.00,,---,0.00,VWS V14.01,2013-01-18 11:03:00,
2013-01-18 03:08:00,60.2,19.0,30.15,NNW,327,3.0,6.0,20,0.00,,---,0.00,VWS V14.01,2013-01-18 11:08:00,
2013-01-18 03:13:00,60.2,19.0,30.15,NNE,26,0.0,6.0,20,0.00,,---,0.00,VWS V14.01,2013-01-18 11:13:00,
2013-01-18 03:18:00,60.7,19.4,30.15,NNW,339,2.0,8.0,20,0.00,,---,0.00,VWS V14.01,2013-01-18 11:18:00,
2013-01-18 03:23:00,60.9,18.4,30.15,North,11,3.0,8.0,19,0.00,,---,0.00,VWS V14.01,2013-01-18 11:23:00,
2013-01-18 03:28:00,60.7,18.2,30.15,North,355,1.0,8.0,19,0.00,,---,0.00,VWS V14.01,2013-01-18 11:28:00,
2013-01-18 03:33:00,60.7,19.4,30.15,NNW,348,3.0,4.0,20,0.00,,---,0.00,VWS V14.01,2013-01-18 11:33:00,
2013-01-18 03:38:00,60.0,21.1,30.15,East,100,0.0,4.0,22,0.00,,---,0.00,VWS V14.01,2013-01-18 11:38:00,
2013-01-18 03:43:00,59.0,19.1,30.15,NE,50,0.0,4.0,21,0.00,,---,0.00,VWS V14.01,2013-01-18 11:43:00,
2013-01-18 03:48:00,58.9,19.1,30.15,NE,40,0.0,4.0,21,0.00,,---,0.00,VWS V14.01,2013-01-18 11:48:00,
2013-01-18 03:53:00,58.9,19.1,30.15,NNE,30,0.0,4.0,21,0.00,,---,0.00,VWS V14.01,2013-01-18 11:53:00,
2013-01-18 03:57:00,58.5,18.7,30.15,NNE,30,0.0,4.0,21,0.00,,---,0.00,VWS V14.01,2013-01-18 11:57:00,
2013-01-18 04:02:00,58.7,18.9,30.15,NNW,348,3.0,5.0,21,0.00,,---,0.00,VWS V14.01,2013-01-18 12:02:00,
2013-01-18 04:07:00,59.4,18.3,30.15,NNW,334,5.0,5.0,20,0.00,,---,0.00,VWS V14.01,2013-01-18 12:07:00,
2013-01-18 04:12:00,59.9,18.8,30.15,NNW,339,0.0,5.0,20,0.00,,---,0.00,VWS V14.01,2013-01-18 12:12:00,
2013-01-18 04:17:00,59.6,20.7,30.15,NE,37,0.0,5.0,22,0.00,,---,0.00,VWS V14.01,2013-01-18 12:17:00,
2013-01-18 04:22:00,58.8,19.0,30.14,NNE,32,3.0,5.0,21,0.00,,---,0.00,VWS V14.01,2013-01-18 12:22:00,
2013-01-18 04:27:00,59.0,19.1,30.14,North,350,3.0,5.0,21,0.00,,---,0.00,VWS V14.01,2013-01-18 12:27:00,
2013-01-18 04:32:00,59.6,18.5,30.14,North,355,4.0,6.0,20,0.00,,---,0.00,VWS V14.01,2013-01-18 12:32:00,
2013-01-18 04:37:00,60.4,19.2,30.14,North,11,1.0,7.0,20,0.00,,---,0.00,VWS V14.01,2013-01-18 12:37:00,
2013-01-18 04:42:00,60.6,19.3,30.14,NNE,13,0.0,7.0,20,0.00,,---,0.00,VWS V14.01,2013-01-18 12:42:00,
2013-01-18 04:47:00,60.7,18.2,30.14,North,360,0.0,7.0,19,0.00,,---,0.00,VWS V14.01,2013-01-18 12:47:00,
2013-01-18 04:52:00,60.2,19.0,30.14,NNW,336,2.0,7.0,20,0.00,,---,0.00,VWS V14.01,2013-01-18 12:52:00,
2013-01-18 04:57:00,59.6,19.6,30.14,North,5,2.0,7.0,21,0.00,,---,0.00,VWS V14.01,2013-01-18 12:57:00,
2013-01-18 05:02:00,58.6,19.9,30.14,NW,322,1.0,4.0,22,0.00,,---,0.00,VWS V14.01,2013-01-18 13:02:00,
2013-01-18 05:07:00,58.5,19.8,30.14,NW,326,1.0,4.0,22,0.00,,---,0.00,VWS V14.01,2013-01-18 13:07:00,
2013-01-18 05:12:00,59.0,19.1,30.14,NNW,347,2.0,4.0,21,0.00,,---,0.00,VWS V14.01,2013-01-18 13:12:00,
2013-01-18 05:17:00,59.6,19.6,30.14,NW,322,2.0,7.0,21,0.00,,---,0.00,VWS V14.01,2013-01-18 13:17:00,
2013-01-18 05:22:00,59.7,19.7,30.14,NNW,333,1.0,7.0,21,0.00,,---,0.00,VWS V14.01,2013-01-18 13:22:00,
2013-01-18 05:27:00,59.1,20.3,30.14,NW,326,2.0,7.0,22,0.00,,---,0.00,VWS V14.01,2013-01-18 13:27:00,
2013-01-18 05:32:00,58.6,19.9,30.14,NW,318,2.0,3.0,22,0.00,,---,0.00,VWS V14.01,2013-01-18 13:32:00,
2013-01-18 05:37:00,58.2,19.6,30.14,NW,313,1.0,4.0,22,0.00,,---,0.00,VWS V14.01,2013-01-18 13:37:00,
2013-01-18 05:42:00,58.3,19.6,30.14,NNW,344,0.0,5.0,22,0.00,,---,0.00,VWS V14.01,2013-01-18 13:42:00,
2013-01-18 05:47:00,58.7,18.9,30.14,North,351,2.0,5.0,21,0.00,,---,0.00,VWS V14.01,2013-01-18 13:47:00,
2013-01-18 05:52:00,59.1,19.2,30.14,North,350,3.0,5.0,21,0.00,,---,0.00,VWS V14.01,2013-01-18 13:52:00,
2013-01-18 05:57:00,59.9,19.9,30.14,NNW,333,3.0,5.0,21,0.00,,---,0.00,VWS V14.01,2013-01-18 13:57:00,
2013-01-18 06:02:00,59.9,19.9,30.14,NNW,328,0.0,3.0,21,0.00,,---,0.00,VWS V14.01,2013-01-18 14:02:00,
2013-01-18 06:07:00,58.5,20.9,30.14,North,10,2.0,3.0,23,0.00,,---,0.00,VWS V14.01,2013-01-18 14:07:00,
2013-01-18 06:12:00,57.0,22.5,30.15,ENE,61,0.0,3.0,26,0.00,,---,0.00,VWS V14.01,2013-01-18 14:12:00,
2013-01-18 06:17:00,56.2,20.9,30.15,North,355,0.0,3.0,25,0.00,,---,0.00,VWS V14.01,2013-01-18 14:17:00,
2013-01-18 06:22:00,56.0,19.7,30.15,North,355,0.0,3.0,24,0.00,,---,0.00,VWS V14.01,2013-01-18 14:22:00,
2013-01-18 06:27:00,56.6,21.2,30.15,NNW,346,2.0,3.0,25,0.00,,---,0.00,VWS V14.01,2013-01-18 14:27:00,
2013-01-18 06:32:00,57.2,19.8,30.15,North,360,1.0,6.0,23,0.00,,---,0.00,VWS V14.01,2013-01-18 14:32:00,
2013-01-18 06:37:00,57.8,20.3,30.15,North,5,3.0,6.0,23,0.00,,---,0.00,VWS V14.01,2013-01-18 14:37:00,
2013-01-18 06:42:00,58.6,19.9,30.15,North,360,4.0,8.0,22,0.00,,---,0.00,VWS V14.01,2013-01-18 14:42:00,
2013-01-18 06:47:00,59.1,19.2,30.15,North,11,2.0,8.0,21,0.00,,---,0.00,VWS V14.01,2013-01-18 14:47:00,
2013-01-18 06:52:00,59.3,19.4,30.15,NNW,343,3.0,8.0,21,0.00,,---,0.00,VWS V14.01,2013-01-18 14:52:00,
2013-01-18 06:57:00,59.6,19.6,30.15,NNW,329,1.0,8.0,21,0.00,,---,0.00,VWS V14.01,2013-01-18 14:57:00,
2013-01-18 07:02:00,59.8,19.8,30.15,NNE,19,4.0,7.0,21,0.00,,---,0.00,VWS V14.01,2013-01-18 15:02:00,
2013-01-18 07:07:00,59.8,19.8,30.15,NNW,343,2.0,10.0,21,0.00,,---,0.00,VWS V14.01,2013-01-18 15:07:00,
2013-01-18 07:12:00,59.9,19.9,30.15,North,10,0.0,10.0,21,0.00,,---,0.00,VWS V14.01,2013-01-18 15:12:00,
2013-01-18 07:17:00,60.0,20.0,30.15,North,351,1.0,10.0,21,0.00,,---,0.00,VWS V14.01,2013-01-18 15:17:00,
2013-01-18 07:22:00,60.1,20.1,30.15,NNW,346,0.0,10.0,21,0.00,,---,0.00,VWS V14.01,2013-01-18 15:22:00,
2013-01-18 07:27:00,59.4,21.6,30.15,NNE,23,1.0,10.0,23,0.00,,---,0.00,VWS V14.01,2013-01-18 15:27:00,
2013-01-18 07:32:00,59.4,20.6,30.16,NE,34,3.0,5.0,22,0.00,,---,0.00,VWS V14.01,2013-01-18 15:32:00,
2013-01-18 07:37:00,59.8,22.0,30.16,NE,44,2.0,5.0,23,0.00,,---,0.00,VWS V14.01,2013-01-18 15:37:00,
2013-01-18 07:42:00,60.0,21.1,30.16,NE,39,2.0,6.0,22,0.00,,---,0.00,VWS V14.01,2013-01-18 15:42:00,
2013-01-18 07:47:00,60.3,22.4,30.16,NE,46,2.0,7.0,23,0.00,,---,0.00,VWS V14.01,2013-01-18 15:47:00,
2013-01-18 07:52:00,60.7,22.7,30.16,North,5,4.0,7.0,23,0.00,,---,0.00,VWS V14.01,2013-01-18 15:52:00,
2013-01-18 07:57:00,61.2,22.1,30.16,NNE,28,2.0,7.0,22,0.00,,---,0.00,VWS V14.01,2013-01-18 15:57:00,
2013-01-18 08:02:00,61.7,23.5,30.16,NNE,15,0.0,4.0,23,0.00,,---,0.00,VWS V14.01,2013-01-18 16:02:00,
2013-01-18 08:07:00,62.1,23.9,30.16,NE,37,1.0,4.0,23,0.00,,---,0.00,VWS V14.01,2013-01-18 16:07:00,
2013-01-18 08:12:00,62.3,23.0,30.16,NE,36,1.0,4.0,22,0.00,,---,0.00,VWS V14.01,2013-01-18 16:12:00,
2013-01-18 08:17:00,62.6,23.2,30.17,NNE,22,3.0,4.0,22,0.00,,---,0.00,VWS V14.01,2013-01-18 16:17:00,
2013-01-18 08:22:00,63.0,23.6,30.17,NNE,22,6.0,6.0,22,0.00,,---,0.00,VWS V14.01,2013-01-18 16:22:00,
2013-01-18 08:48:00,65.0,24.1,30.17,NNE,17,4.0,4.0,21,0.00,,---,0.00,VWS V14.01,2013-01-18 16:48:00,
2013-01-18 08:53:00,65.5,24.6,30.17,SE,140,2.0,6.0,21,0.00,,---,0.00,VWS V14.01,2013-01-18 16:53:00,
2013-01-18 08:58:00,66.5,23.0,30.17,SE,124,2.0,6.0,19,0.00,,---,0.00,VWS V14.01,2013-01-18 16:58:00,
2013-01-18 09:03:00,67.3,23.7,30.18,NE,36,1.0,6.0,19,0.00,,---,0.00,VWS V14.01,2013-01-18 17:03:00,
2013-01-18 09:08:00,67.8,22.8,30.18,NNE,15,4.0,8.0,18,0.00,,---,0.00,VWS V14.01,2013-01-18 17:08:00,
2013-01-18 09:13:00,68.1,23.0,30.18,ENE,59,0.0,8.0,18,0.00,,---,0.00,VWS V14.01,2013-01-18 17:13:00,
2013-01-18 09:18:00,68.5,23.4,30.18,NNE,30,0.0,9.0,18,0.00,,---,0.00,VWS V14.01,2013-01-18 17:18:00,
2013-01-18 09:23:00,68.8,24.9,30.18,NNE,19,3.0,11.0,19,0.00,,---,0.00,VWS V14.01,2013-01-18 17:23:00,
2013-01-18 09:28:00,69.3,24.0,30.18,ENE,67,5.0,12.0,18,0.00,,---,0.00,VWS V14.01,2013-01-18 17:28:00,
2013-01-18 09:33:00,69.5,24.2,30.18,North,5,6.0,10.0,18,0.00,,---,0.00,VWS V14.01,2013-01-18 17:33:00,
2013-01-18 09:38:00,69.6,22.9,30.18,NE,41,9.0,13.0,17,0.00,,---,0.00,VWS V14.01,2013-01-18 17:38:00,
2013-01-18 09:43:00,69.8,24.4,30.18,NE,51,3.0,13.0,18,0.00,,---,0.00,VWS V14.01,2013-01-18 17:43:00,
2013-01-18 09:48:00,70.3,23.5,30.18,ENE,75,1.0,13.0,17,0.00,,---,0.00,VWS V14.01,2013-01-18 17:48:00,
2013-01-18 09:53:00,70.9,24.0,30.18,NNW,346,10.0,13.0,17,0.00,,---,0.00,VWS V14.01,2013-01-18 17:53:00,
2013-01-18 09:58:00,70.7,23.8,30.18,East,90,7.0,13.0,17,0.00,,---,0.00,VWS V14.01,2013-01-18 17:58:00,
2013-01-18 10:03:00,70.6,25.1,30.18,NNE,20,7.0,11.0,18,0.00,,---,0.00,VWS V14.01,2013-01-18 18:03:00,
2013-01-18 10:08:00,70.8,25.2,30.18,NE,49,6.0,11.0,18,0.00,,---,0.00,VWS V14.01,2013-01-18 18:08:00,
2013-01-18 10:13:00,71.2,25.6,30.17,ESE,111,6.0,12.0,18,0.00,,---,0.00,VWS V14.01,2013-01-18 18:13:00,
2013-01-18 10:18:00,72.1,24.9,30.18,North,355,3.0,12.0,17,0.00,,---,0.00,VWS V14.01,2013-01-18 18:18:00,
2013-01-18 10:23:00,72.5,25.2,30.17,East,81,0.0,12.0,17,0.00,,---,0.00,VWS V14.01,2013-01-18 18:23:00,
2013-01-18 10:28:00,73.1,24.3,30.17,NE,51,0.0,12.0,16,0.00,,---,0.00,VWS V14.01,2013-01-18 18:28:00,
2013-01-18 10:33:00,73.0,24.2,30.17,North,5,1.0,8.0,16,0.00,,---,0.00,VWS V14.01,2013-01-18 18:33:00,
2013-01-18 10:38:00,73.0,24.2,30.17,NE,45,5.0,9.0,16,0.00,,---,0.00,VWS V14.01,2013-01-18 18:38:00,
2013-01-18 10:43:00,73.1,24.3,30.17,ENE,63,1.0,9.0,16,0.00,,---,0.00,VWS V14.01,2013-01-18 18:43:00,
2013-01-18 10:48:00,73.4,24.5,30.16,NE,40,3.0,12.0,16,0.00,,---,0.00,VWS V14.01,2013-01-18 18:48:00,
2013-01-18 10:53:00,72.7,24.0,30.16,NNW,333,7.0,12.0,16,0.00,,---,0.00,VWS V14.01,2013-01-18 18:53:00,
2013-01-18 10:58:00,73.0,25.6,30.16,NNW,332,3.0,12.0,17,0.00,,---,0.00,VWS V14.01,2013-01-18 18:58:00,
2013-01-18 11:03:00,73.2,24.4,30.16,NNE,26,6.0,11.0,16,0.00,,---,0.00,VWS V14.01,2013-01-18 19:03:00,
2013-01-18 11:08:00,73.5,27.4,30.15,North,355,1.0,11.0,18,0.00,,---,0.00,VWS V14.01,2013-01-18 19:08:00,
2013-01-18 11:13:00,73.9,29.1,30.15,North,5,1.0,11.0,19,0.00,,---,0.00,VWS V14.01,2013-01-18 19:13:00,
2013-01-18 11:18:00,74.5,29.6,30.15,ENE,68,1.0,11.0,19,0.00,,---,0.00,VWS V14.01,2013-01-18 19:18:00,
2013-01-18 11:23:00,75.1,28.7,30.14,ESE,117,4.0,11.0,18,0.00,,---,0.00,VWS V14.01,2013-01-18 19:23:00,
2013-01-18 11:28:00,75.3,27.5,30.14,ESE,110,6.0,11.0,17,0.00,,---,0.00,VWS V14.01,2013-01-18 19:28:00,
2013-01-18 11:33:00,75.5,26.2,30.13,NE,46,6.0,10.0,16,0.00,,---,0.00,VWS V14.01,2013-01-18 19:33:00,
2013-01-18 11:38:00,75.3,24.5,30.13,NNW,340,4.0,12.0,15,0.00,,---,0.00,VWS V14.01,2013-01-18 19:38:00,
2013-01-18 11:43:00,75.3,28.9,30.13,SE,125,2.0,12.0,18,0.00,,---,0.00,VWS V14.01,2013-01-18 19:43:00,
2013-01-18 11:48:00,74.9,28.6,30.12,North,5,2.0,12.0,18,0.00,,---,0.00,VWS V14.01,2013-01-18 19:48:00,
2013-01-18 11:53:00,74.0,27.9,30.12,NNW,338,3.0,12.0,18,0.00,,---,0.00,VWS V14.01,2013-01-18 19:53:00,
2013-01-18 11:58:00,73.8,29.0,30.12,NE,49,4.0,12.0,19,0.00,,---,0.00,VWS V14.01,2013-01-18 19:58:00,
2013-01-18 12:03:00,74.6,27.0,30.11,NNE,16,2.0,7.0,17,0.00,,---,0.00,VWS V14.01,2013-01-18 20:03:00,
2013-01-18 12:08:00,74.9,29.9,30.11,NNE,22,0.0,7.0,19,0.00,,---,0.00,VWS V14.01,2013-01-18 20:08:00,
2013-01-18 12:13:00,74.8,28.5,30.11,NE,55,1.0,7.0,18,0.00,,---,0.00,VWS V14.01,2013-01-18 20:13:00,
2013-01-18 12:18:00,75.3,27.5,30.11,NNE,13,0.0,7.0,17,0.00,,---,0.00,VWS V14.01,2013-01-18 20:18:00,
2013-01-18 12:23:00,75.5,29.1,30.10,ENE,74,4.0,7.0,18,0.00,,---,0.00,VWS V14.01,2013-01-18 20:23:00,
2013-01-18 12:28:00,77.0,24.2,30.10,ENE,69,3.0,8.0,14,0.00,,---,0.00,VWS V14.01,2013-01-18 20:28:00,
2013-01-18 12:33:00,77.9,21.2,30.10,North,355,2.0,11.0,12,0.00,,---,0.00,VWS V14.01,2013-01-18 20:33:00,
2013-01-18 12:38:00,78.4,21.6,30.10,NE,55,1.0,11.0,12,0.00,,---,0.00,VWS V14.01,2013-01-18 20:38:00,
2013-01-18 12:43:00,78.8,22.0,30.10,ENE,67,3.0,11.0,12,0.00,,---,0.00,VWS V14.01,2013-01-18 20:43:00,
2013-01-18 12:48:00,78.7,21.9,30.09,ESE,118,7.0,11.0,12,0.00,,---,0.00,VWS V14.01,2013-01-18 20:48:00,
2013-01-18 12:53:00,78.4,19.6,30.09,ESE,118,11.0,12.0,11,0.00,,---,0.00,VWS V14.01,2013-01-18 20:53:00,
2013-01-18 12:58:00,78.4,19.6,30.09,ESE,120,1.0,12.0,11,0.00,,---,0.00,VWS V14.01,2013-01-18 20:58:00,
2013-01-18 13:03:00,78.4,21.6,30.09,SE,130,4.0,11.0,12,0.00,,---,0.00,VWS V14.01,2013-01-18 21:03:00,
2013-01-18 13:08:00,78.6,21.8,30.09,ESE,116,7.0,11.0,12,0.00,,---,0.00,VWS V14.01,2013-01-18 21:08:00,
2013-01-18 13:13:00,78.5,19.7,30.09,ENE,78,0.0,11.0,11,0.00,,---,0.00,VWS V14.01,2013-01-18 21:13:00,
2013-01-18 13:18:00,78.7,19.8,30.09,ESE,116,7.0,12.0,11,0.00,,---,0.00,VWS V14.01,2013-01-18 21:18:00,
2013-01-18 13:23:00,78.5,19.7,30.09,SE,127,5.0,12.0,11,0.00,,---,0.00,VWS V14.01,2013-01-18 21:23:00,
2013-01-18 13:28:00,78.8,19.9,30.09,NNE,21,4.0,13.0,11,0.00,,---,0.00,VWS V14.01,2013-01-18 21:28:00,
2013-01-18 13:33:00,79.3,20.3,30.09,NNE,32,2.0,7.0,11,0.00,,---,0.00,VWS V14.01,2013-01-18 21:33:00,
2013-01-18 13:38:00,79.3,20.3,30.09,ESE,105,6.0,12.0,11,0.00,,---,0.00,VWS V14.01,2013-01-18 21:38:00,
2013-01-18 13:43:00,78.9,20.0,30.09,ESE,104,4.0,12.0,11,0.00,,---,0.00,VWS V14.01,2013-01-18 21:43:00,
2013-01-18 13:48:00,78.8,19.9,30.09,ESE,117,5.0,12.0,11,0.00,,---,0.00,VWS V14.01,2013-01-18 21:48:00,
2013-01-18 13:53:00,79.0,20.0,30.09,East,79,6.0,12.0,11,0.00,,---,0.00,VWS V14.01,2013-01-18 21:53:00,
2013-01-18 13:58:00,78.9,20.0,30.09,SE,134,4.0,12.0,11,0.00,,---,0.00,VWS V14.01,2013-01-18 21:58:00,
2013-01-18 14:03:00,78.9,20.0,30.09,NE,51,7.0,9.0,11,0.00,,---,0.00,VWS V14.01,2013-01-18 22:03:00,
2013-01-18 14:08:00,78.9,20.0,30.09,ENE,71,5.0,9.0,11,0.00,,---,0.00,VWS V14.01,2013-01-18 22:08:00,
2013-01-18 14:13:00,78.7,19.8,30.09,NE,44,2.0,13.0,11,0.00,,---,0.00,VWS V14.01,2013-01-18 22:13:00,
2013-01-18 14:18:00,78.7,17.6,30.09,North,360,2.0,13.0,10,0.00,,---,0.00,VWS V14.01,2013-01-18 22:18:00,
2013-01-18 14:23:00,78.7,19.8,30.09,NE,49,2.0,13.0,11,0.00,,---,0.00,VWS V14.01,2013-01-18 22:23:00,
2013-01-18 14:28:00,78.4,19.6,30.09,ENE,65,0.0,13.0,11,0.00,,---,0.00,VWS V14.01,2013-01-18 22:28:00,
2013-01-18 14:33:00,78.6,19.8,30.09,ESE,113,2.0,7.0,11,0.00,,---,0.00,VWS V14.01,2013-01-18 22:33:00,
2013-01-18 14:38:00,78.8,22.0,30.09,East,80,4.0,7.0,12,0.00,,---,0.00,VWS V14.01,2013-01-18 22:38:00,
2013-01-18 14:43:00,78.8,19.9,30.09,North,360,1.0,7.0,11,0.00,,---,0.00,VWS V14.01,2013-01-18 22:43:00,
2013-01-18 14:48:00,78.7,19.8,30.09,East,94,6.0,8.0,11,0.00,,---,0.00,VWS V14.01,2013-01-18 22:48:00,
2013-01-18 14:53:00,78.4,19.6,30.09,SE,126,4.0,11.0,11,0.00,,---,0.00,VWS V14.01,2013-01-18 22:53:00,
2013-01-18 14:58:00,78.2,19.4,30.09,East,85,1.0,11.0,11,0.00,,---,0.00,VWS V14.01,2013-01-18 22:58:00,
2013-01-18 15:03:00,77.9,19.2,30.09,North,355,4.0,8.0,11,0.00,,---,0.00,VWS V14.01,2013-01-18 23:03:00,
2013-01-18 15:08:00,77.6,19.0,30.09,SE,139,5.0,8.0,11,0.00,,---,0.00,VWS V14.01,2013-01-18 23:08:00,
2013-01-18 15:13:00,77.2,18.7,30.09,NNE,15,5.0,8.0,11,0.00,,---,0.00,VWS V14.01,2013-01-18 23:13:00,
2013-01-18 15:18:00,77.1,18.6,30.09,ESE,113,4.0,8.0,11,0.00,,---,0.00,VWS V14.01,2013-01-18 23:18:00,
2013-01-18 15:23:00,76.8,18.4,30.08,SE,134,4.0,11.0,11,0.00,,---,0.00,VWS V14.01,2013-01-18 23:23:00,
2013-01-18 15:28:00,76.7,20.3,30.08,NE,53,6.0,11.0,12,0.00,,---,0.00,VWS V14.01,2013-01-18 23:28:00,
2013-01-18 15:33:00,76.7,20.3,30.08,SE,126,7.0,9.0,12,0.00,,---,0.00,VWS V14.01,2013-01-18 23:33:00,
2013-01-18 15:38:00,76.7,22.2,30.09,East,81,0.0,9.0,13,0.00,,---,0.00,VWS V14.01,2013-01-18 23:38:00,
2013-01-18 15:43:00,76.7,22.2,30.09,NNE,28,0.0,9.0,13,0.00,,---,0.00,VWS V14.01,2013-01-18 23:43:00,
2013-01-18 15:48:00,76.9,22.4,30.09,ESE,115,6.0,9.0,13,0.00,,---,0.00,VWS V14.01,2013-01-18 23:48:00,
2013-01-18 15:53:00,76.2,19.9,30.09,ESE,114,2.0,9.0,12,0.00,,---,0.00,VWS V14.01,2013-01-18 23:53:00,
2013-01-18 15:58:00,75.6,19.5,30.09,SE,132,2.0,10.0,12,0.00,,---,0.00,VWS V14.01,2013-01-18 23:58:00,
2013-01-18 16:03:00,75.3,21.1,30.09,NE,56,3.0,5.0,13,0.00,,---,0.00,VWS V14.01,2013-01-19 00:03:00,
2013-01-18 16:08:00,75.0,20.9,30.09,NE,43,0.0,6.0,13,0.00,,---,0.00,VWS V14.01,2013-01-19 00:08:00,
2013-01-18 16:13:00,74.7,20.6,30.09,North,9,4.0,6.0,13,0.00,,---,0.00,VWS V14.01,2013-01-19 00:13:00,
2013-01-18 16:18:00,74.4,20.4,30.09,NW,318,2.0,8.0,13,0.00,,---,0.00,VWS V14.01,2013-01-19 00:18:00,
2013-01-18 16:23:00,74.2,18.4,30.09,ESE,110,2.0,9.0,12,0.00,,---,0.00,VWS V14.01,2013-01-19 00:23:00,
2013-01-18 16:28:00,74.1,20.2,30.09,East,84,0.0,9.0,13,0.00,,---,0.00,VWS V14.01,2013-01-19 00:28:00,
2013-01-18 16:33:00,73.8,21.7,30.09,NNE,15,1.0,4.0,14,0.00,,---,0.00,VWS V14.01,2013-01-19 00:33:00,
2013-01-18 16:38:00,73.5,21.4,30.09,ESE,120,4.0,5.0,14,0.00,,---,0.00,VWS V14.01,2013-01-19 00:38:00,
2013-01-18 16:43:00,73.3,21.3,30.09,ENE,71,3.0,5.0,14,0.00,,---,0.00,VWS V14.01,2013-01-19 00:43:00,
2013-01-18 16:48:00,73.1,21.1,30.09,ENE,61,0.0,5.0,14,0.00,,---,0.00,VWS V14.01,2013-01-19 00:48:00,
2013-01-18 16:53:00,72.8,20.9,30.09,ENE,61,0.0,5.0,14,0.00,,---,0.00,VWS V14.01,2013-01-19 00:53:00,
2013-01-18 16:58:00,72.3,22.1,30.09,North,5,0.0,5.0,15,0.00,,---,0.00,VWS V14.01,2013-01-19 00:58:00,
2013-01-18 17:03:00,71.9,21.8,30.09,North,11,0.0,1.0,15,0.00,,---,0.00,VWS V14.01,2013-01-19 01:03:00,
2013-01-18 17:08:00,71.5,21.5,30.10,North,11,0.0,1.0,15,0.00,,---,0.00,VWS V14.01,2013-01-19 01:08:00,
2013-01-18 17:13:00,71.2,21.2,30.10,North,11,0.0,1.0,15,0.00,,---,0.00,VWS V14.01,2013-01-19 01:13:00,
2013-01-18 17:18:00,71.0,21.1,30.10,North,11,0.0,1.0,15,0.00,,---,0.00,VWS V14.01,2013-01-19 01:18:00,
2013-01-18 17:23:00,70.7,22.3,30.10,North,11,0.0,1.0,16,0.00,,---,0.00,VWS V14.01,2013-01-19 01:23:00,
2013-01-18 17:28:00,70.3,22.0,30.10,North,11,0.0,1.0,16,0.00,,---,0.00,VWS V14.01,2013-01-19 01:28:00,
2013-01-18 17:33:00,69.7,21.5,30.10,North,11,0.0,0.0,16,0.00,,---,0.00,VWS V14.01,2013-01-19 01:33:00,
2013-01-18 17:38:00,69.2,22.6,30.10,North,11,0.0,0.0,17,0.00,,---,0.00,VWS V14.01,2013-01-19 01:38:00,
2013-01-18 17:43:00,68.3,24.5,30.10,North,11,0.0,0.0,19,0.00,,---,0.00,VWS V14.01,2013-01-19 01:43:00,
2013-01-18 17:48:00,67.2,22.3,30.10,North,11,0.0,0.0,18,0.00,,---,0.00,VWS V14.01,2013-01-19 01:48:00,
2013-01-18 17:53:00,66.5,21.7,30.10,North,11,0.0,0.0,18,0.00,,---,0.00,VWS V14.01,2013-01-19 01:53:00,
2013-01-18 17:58:00,66.1,22.7,30.10,North,10,1.0,1.0,19,0.00,,---,0.00,VWS V14.01,2013-01-19 01:58:00,
2013-01-18 18:03:00,65.5,22.2,30.11,North,351,0.0,2.0,19,0.00,,---,0.00,VWS V14.01,2013-01-19 02:03:00,
2013-01-18 18:08:00,66.0,20.0,30.11,NNE,18,1.0,5.0,17,0.00,,---,0.00,VWS V14.01,2013-01-19 02:08:00,
2013-01-18 18:13:00,66.4,21.6,30.11,North,10,2.0,5.0,18,0.00,,---,0.00,VWS V14.01,2013-01-19 02:13:00,
2013-01-18 18:18:00,66.3,21.6,30.11,NNE,13,0.0,5.0,18,0.00,,---,0.00,VWS V14.01,2013-01-19 02:18:00,
2013-01-18 18:23:00,66.3,20.2,30.11,NNE,17,0.0,5.0,17,0.00,,---,0.00,VWS V14.01,2013-01-19 02:23:00,
2013-01-18 18:28:00,66.3,20.2,30.11,NE,40,0.0,5.0,17,0.00,,---,0.00,VWS V14.01,2013-01-19 02:28:00,
2013-01-18 18:33:00,66.2,20.1,30.11,NE,40,0.0,1.0,17,0.00,,---,0.00,VWS V14.01,2013-01-19 02:33:00,
2013-01-18 18:38:00,66.0,21.3,30.11,NE,40,0.0,1.0,18,0.00,,---,0.00,VWS V14.01,2013-01-19 02:38:00,
2013-01-18 18:43:00,65.5,20.9,30.11,NE,40,0.0,1.0,18,0.00,,---,0.00,VWS V14.01,2013-01-19 02:43:00,
2013-01-18 18:48:00,65.0,20.5,30.11,NE,40,0.0,1.0,18,0.00,,---,0.00,VWS V14.01,2013-01-19 02:48:00,
2013-01-18 18:53:00,64.7,20.2,30.12,NNE,24,0.0,1.0,18,0.00,,---,0.00,VWS V14.01,2013-01-19 02:53:00,
2013-01-18 18:58:00,64.6,20.2,30.11,NNE,24,0.0,1.0,18,0.00,,---,0.00,VWS V14.01,2013-01-19 02:58:00,
2013-01-18 19:03:00,64.4,18.7,30.12,NNE,24,0.0,1.0,17,0.00,,---,0.00,VWS V14.01,2013-01-19 03:03:00,
2013-01-18 19:08:00,64.7,18.9,30.12,NNE,23,0.0,1.0,17,0.00,,---,0.00,VWS V14.01,2013-01-19 03:08:00,
2013-01-18 19:13:00,64.5,18.8,30.12,NNE,23,0.0,1.0,17,0.00,,---,0.00,VWS V14.01,2013-01-19 03:13:00,
2013-01-18 19:18:00,64.0,19.7,30.12,NNE,23,0.0,1.0,18,0.00,,---,0.00,VWS V14.01,2013-01-19 03:18:00,
2013-01-18 19:23:00,63.6,19.4,30.12,NNE,23,0.0,1.0,18,0.00,,---,0.00,VWS V14.01,2013-01-19 03:23:00,
2013-01-18 19:27:00,63.1,18.9,30.12,NNE,23,0.0,1.0,18,0.00,,---,0.00,VWS V14.01,2013-01-19 03:27:00,
2013-01-18 19:32:00,63.2,19.0,30.12,NNE,23,0.0,1.0,18,0.00,,---,0.00,VWS V14.01,2013-01-19 03:32:00,
2013-01-18 19:37:00,63.5,19.3,30.12,NNE,23,0.0,1.0,18,0.00,,---,0.00,VWS V14.01,2013-01-19 03:37:00,
2013-01-18 19:43:00,63.6,19.4,30.12,NNE,23,0.0,1.0,18,0.00,,---,0.00,VWS V14.01,2013-01-19 03:43:00,
2013-01-18 19:48:00,63.7,18.1,30.12,NNE,23,0.0,1.0,17,0.00,,---,0.00,VWS V14.01,2013-01-19 03:48:00,
2013-01-18 19:53:00,63.7,19.4,30.12,NNE,23,0.0,1.0,18,0.00,,---,0.00,VWS V14.01,2013-01-19 03:53:00,
2013-01-18 19:58:00,63.0,20.1,30.12,NNE,23,0.0,1.0,19,0.00,,---,0.00,VWS V14.01,2013-01-19 03:58:00,
2013-01-18 20:03:00,62.0,21.6,30.13,NNE,23,0.0,0.0,21,0.00,,---,0.00,VWS V14.01,2013-01-19 04:03:00,
2013-01-18 20:08:00,61.2,21.0,30.13,NNE,23,0.0,0.0,21,0.00,,---,0.00,VWS V14.01,2013-01-19 04:08:00,
2013-01-18 20:13:00,60.8,19.5,30.13,NNE,23,0.0,1.0,20,0.00,,---,0.00,VWS V14.01,2013-01-19 04:13:00,
2013-01-18 20:18:00,60.9,19.6,30.13,NNE,21,0.0,1.0,20,0.00,,---,0.00,VWS V14.01,2013-01-19 04:18:00,
2013-01-18 20:23:00,61.5,20.1,30.13,NNE,21,1.0,1.0,20,0.00,,---,0.00,VWS V14.01,2013-01-19 04:23:00,
2013-01-18 20:28:00,62.5,18.5,30.13,North,5,0.0,5.0,18,0.00,,---,0.00,VWS V14.01,2013-01-19 04:28:00,
2013-01-18 20:33:00,63.4,19.2,30.13,North,350,1.0,2.0,18,0.00,,---,0.00,VWS V14.01,2013-01-19 04:33:00,
2013-01-18 20:38:00,63.8,19.5,30.13,North,5,0.0,2.0,18,0.00,,---,0.00,VWS V14.01,2013-01-19 04:38:00,
2013-01-18 20:43:00,63.9,18.3,30.14,NNE,19,3.0,5.0,17,0.00,,---,0.00,VWS V14.01,2013-01-19 04:43:00,
2013-01-18 20:48:00,63.8,20.8,30.14,NNW,339,3.0,5.0,19,0.00,,---,0.00,VWS V14.01,2013-01-19 04:48:00,
2013-01-18 20:53:00,63.3,19.1,30.14,ENE,63,0.0,5.0,18,0.00,,---,0.00,VWS V14.01,2013-01-19 04:53:00,
2013-01-18 20:58:00,63.5,17.9,30.14,NE,40,0.0,5.0,17,0.00,,---,0.00,VWS V14.01,2013-01-19 04:58:00,
2013-01-18 21:01:00,63.6,18.0,30.14,NNW,340,3.0,6.0,17,0.00,,---,0.00,VWS V14.01,2013-01-19 05:01:00,
2013-01-18 21:02:00,63.6,18.0,30.14,North,9,2.0,6.0,17,0.00,,---,0.00,VWS V14.01,2013-01-19 05:02:00,
2013-01-18 21:07:00,63.9,18.3,30.14,NE,38,5.0,6.0,17,0.00,,---,0.00,VWS V14.01,2013-01-19 05:07:00,
2013-01-18 21:12:00,64.2,18.5,30.14,NNE,15,0.0,6.0,17,0.00,,---,0.00,VWS V14.01,2013-01-19 05:12:00,
2013-01-18 21:17:00,64.1,18.4,30.14,North,355,0.0,6.0,17,0.00,,---,0.00,VWS V14.01,2013-01-19 05:17:00,
2013-01-18 21:22:00,64.1,18.4,30.14,North,5,2.0,6.0,17,0.00,,---,0.00,VWS V14.01,2013-01-19 05:22:00,
2013-01-18 21:27:00,64.5,17.3,30.14,NE,49,0.0,6.0,16,0.00,,---,0.00,VWS V14.01,2013-01-19 05:27:00,
2013-01-18 21:32:00,64.7,20.2,30.14,NNW,338,0.0,5.0,18,0.00,,---,0.00,VWS V14.01,2013-01-19 05:32:00,
2013-01-18 21:37:00,64.1,19.8,30.14,NNW,348,1.0,6.0,18,0.00,,---,0.00,VWS V14.01,2013-01-19 05:37:00,
2013-01-18 21:42:00,64.1,18.4,30.14,North,349,3.0,6.0,17,0.00,,---,0.00,VWS V14.01,2013-01-19 05:42:00,
2013-01-18 21:47:00,63.9,19.6,30.15,NNW,346,0.0,6.0,18,0.00,,---,0.00,VWS V14.01,2013-01-19 05:47:00,
2013-01-18 21:52:00,63.4,19.2,30.15,NNW,340,0.0,6.0,18,0.00,,---,0.00,VWS V14.01,2013-01-19 05:52:00,
2013-01-18 21:57:00,62.3,20.8,30.15,NNW,340,0.0,6.0,20,0.00,,---,0.00,VWS V14.01,2013-01-19 05:57:00,
2013-01-18 22:02:00,61.2,21.0,30.15,NNW,340,0.0,0.0,21,0.00,,---,0.00,VWS V14.01,2013-01-19 06:02:00,
2013-01-18 22:07:00,60.2,21.2,30.15,NNW,340,1.0,2.0,22,0.00,,---,0.00,VWS V14.01,2013-01-19 06:07:00,
2013-01-18 22:12:00,59.3,21.5,30.15,NNW,329,3.0,3.0,23,0.00,,---,0.00,VWS V14.01,2013-01-19 06:12:00,
2013-01-18 22:17:00,59.8,20.9,30.15,NNW,344,0.0,4.0,22,0.00,,---,0.00,VWS V14.01,2013-01-19 06:17:00,
2013-01-18 22:22:00,60.4,20.3,30.15,NNW,338,0.0,4.0,21,0.00,,---,0.00,VWS V14.01,2013-01-19 06:22:00,
2013-01-18 22:27:00,60.8,20.6,30.15,NNW,338,0.0,4.0,21,0.00,,---,0.00,VWS V14.01,2013-01-19 06:27:00,
2013-01-18 22:32:00,60.5,19.2,30.15,NNW,338,0.0,2.0,20,0.00,,---,0.00,VWS V14.01,2013-01-19 06:32:00,
2013-01-18 22:37:00,60.3,20.2,30.15,NNW,335,0.0,2.0,21,0.00,,---,0.00,VWS V14.01,2013-01-19 06:37:00,
2013-01-18 22:42:00,59.9,19.9,30.15,NNW,333,0.0,2.0,21,0.00,,---,0.00,VWS V14.01,2013-01-19 06:42:00,
2013-01-18 22:47:00,59.5,20.6,30.15,NW,325,0.0,3.0,22,0.00,,---,0.00,VWS V14.01,2013-01-19 06:47:00,
2013-01-18 22:52:00,59.0,21.3,30.15,NW,326,0.0,3.0,23,0.00,,---,0.00,VWS V14.01,2013-01-19 06:52:00,
2013-01-18 22:57:00,58.4,20.8,30.15,NW,326,0.0,3.0,23,0.00,,---,0.00,VWS V14.01,2013-01-19 06:57:00,
2013-01-18 23:02:00,57.9,21.4,30.15,NNW,327,0.0,2.0,24,0.00,,---,0.00,VWS V14.01,2013-01-19 07:02:00,
2013-01-18 23:07:00,57.5,21.0,30.15,NNW,327,0.0,2.0,24,0.00,,---,0.00,VWS V14.01,2013-01-19 07:07:00,
2013-01-18 23:12:00,57.2,20.8,30.14,NNW,327,0.0,2.0,24,0.00,,---,0.00,VWS V14.01,2013-01-19 07:12:00,
2013-01-18 23:17:00,57.4,20.9,30.14,NNW,329,0.0,2.0,24,0.00,,---,0.00,VWS V14.01,2013-01-19 07:17:00,
2013-01-18 23:22:00,57.3,20.8,30.14,NNW,329,0.0,2.0,24,0.00,,---,0.00,VWS V14.01,2013-01-19 07:22:00,
2013-01-18 23:27:00,56.9,20.5,30.15,NW,323,2.0,3.0,24,0.00,,---,0.00,VWS V14.01,2013-01-19 07:27:00,
2013-01-18 23:32:00,57.8,20.3,30.14,NW,322,1.0,2.0,23,0.00,,---,0.00,VWS V14.01,2013-01-19 07:32:00,
2013-01-18 23:37:00,58.9,21.2,30.14,NW,322,0.0,2.0,23,0.00,,---,0.00,VWS V14.01,2013-01-19 07:37:00,
2013-01-18 23:42:00,59.3,20.5,30.14,NW,326,0.0,2.0,22,0.00,,---,0.00,VWS V14.01,2013-01-19 07:42:00,
2013-01-18 23:47:00,58.6,20.9,30.14,NNW,342,0.0,2.0,23,0.00,,---,0.00,VWS V14.01,2013-01-19 07:47:00,
2013-01-18 23:52:00,57.7,20.2,30.14,NNW,346,0.0,3.0,23,0.00,,---,0.00,VWS V14.01,2013-01-19 07:52:00,
2013-01-18 23:57:00,57.7,19.1,30.14,North,9,0.0,3.0,22,0.00,,---,0.00,VWS V14.01,2013-01-19 07:57:00,